Cambridge Bay, Nunavut

1:55 AM MDT on April 22, 2018 (GMT -0600)
Cambridge Bay

Weather History for CYCB - April, 2014

Change the Weather History Date:

Saturday, April 12, 2014

  Actual Average Record
Temperature  
Mean Temperature -17 °F -  
Max Temperature -10 °F 9 °F 12 °F (2007)
Min Temperature -24 °F -6 °F -29 °F (2002)
Degree Days  
Heating Degree Days 82    
Moisture  
Dew Point -25 °F    
Average Humidity 62    
Maximum Humidity 70    
Minimum Humidity 46    
Precipitation  
Precipitation 0.00 in 0.01 in - ()
Sea Level Pressure  
Sea Level Pressure 30.19 in    
Wind  
Wind Speed 15 mph ()    
Max Wind Speed 25 mph    
Max Gust Speed 31 mph    
Visibility 10.8 miles    
Events Snow    
Averages and records for this station are not official NWS values.
T = Trace of Precipitation, MM = Missing Value Source: Averaged Metar Reports

Daily Weather History Graph

Daily Weather History Graph

Search for Another Location

Airport or City:

Astronomy

Apr. 12, 2014 Rise Set
Actual Time 5:15 AM MDT 8:49 PM MDT
Civil Twilight 4:04 AM MDT 10:02 PM MDT
Nautical Twilight 1:34 AM MDT 12:28 AM MDT
Astronomical Twilight Sun does not set Sun does not set
Moon 5:23 PM MDT (4/12) 5:03 AM MDT (4/12)
Length of Visible Light 17h 58m
Length of Day
15h 33m
Waxing Gibbous, 93% of the Moon is Illuminated
Apr 12
Waxing Gibbous
Apr 15
Full
Apr 22
Last Quarter
Apr 29
New
May 6
First Quarter

Hourly Weather History & Observations

Time (MDT) Temp. Windchill Dew Point Humidity Pressure Visibility Wind Dir Wind Speed Gust Speed Precip Events Conditions
12:00 AM -19 °F - -28 °F 46% 30.04 in 15 mi NW 8.1 mph - - Snow Snow
12:00 AM -18.4 °F -37.9 °F -27.4 °F 63% 30.04 in 15.0 mi NW 9.2 mph - N/A   Scattered Clouds
1:00 AM -18.4 °F -42.9 °F -25.6 °F 70% 30.05 in 15.0 mi NNW 15.0 mph - N/A   Scattered Clouds
2:00 AM -20.2 °F -43.4 °F -29.2 °F 63% 30.07 in 15.0 mi NW 12.7 mph - N/A   Scattered Clouds
3:00 AM -22.0 °F -44.7 °F -31.0 °F 63% 30.08 in 15.0 mi WNW 11.5 mph - N/A   Partly Cloudy
4:00 AM -22.0 °F -43.6 °F -31.0 °F 63% 30.09 in 15.0 mi NW 10.4 mph - N/A   Scattered Clouds
5:00 AM -22.0 °F -48.4 °F -31.0 °F 63% 30.10 in 15.0 mi NW 16.1 mph - N/A   Scattered Clouds
6:00 AM -23 °F - -31 °F 50% 30.12 in 15 mi NW 17.3 mph - - Snow Snow
6:00 AM -22.0 °F -49.1 °F -31.0 °F 63% 30.12 in 15.0 mi NW 17.3 mph - N/A   Mostly Cloudy
7:00 AM -20.2 °F -50.1 °F -29.2 °F 63% 30.12 in 15.0 mi NW 23.0 mph - N/A Snow Low Drifting Snow
8:00 AM -18.4 °F -48.3 °F -27.4 °F 63% 30.12 in 15.0 mi NW 24.2 mph - N/A Snow Low Drifting Snow
9:00 AM -20.2 °F -50.7 °F -29.2 °F 63% 30.14 in 5.0 mi NW 24.2 mph - N/A Snow Ice Crystals
9:22 AM - - - N/A% - 1.5 mi NNW 23.0 mph 28.8 mph N/A   Unknown
10:00 AM -18.4 °F -47.7 °F -27.4 °F 63% 30.16 in 1.5 mi NNW 23.0 mph 28.8 mph N/A Snow Blowing Snow
10:23 AM - - - N/A% - 3.0 mi NNW 17.3 mph 23.0 mph N/A   Unknown
11:00 AM -16.6 °F -43.5 °F -25.6 °F 64% 30.17 in 3.0 mi NW 19.6 mph 25.3 mph N/A Snow Blowing Snow
11:28 AM - - - N/A% - 8.0 mi NW 19.6 mph 25.3 mph N/A   Unknown
12:00 PM -15 °F - -24 °F 46% 30.20 in 7 mi NW 19.6 mph - - Snow Low Drifting Snow
12:00 PM -14.8 °F -41.2 °F -23.8 °F 64% 30.20 in 7.0 mi NW 19.6 mph 25.3 mph N/A Snow Low Drifting Snow
1:00 PM -13.0 °F -38.8 °F -22.0 °F 64% 30.21 in 10.0 mi NW 19.6 mph 25.3 mph N/A Snow Low Drifting Snow
1:38 PM - - - N/A% - 2.0 mi NW 25.3 mph 31.1 mph N/A   Unknown
2:00 PM -13.0 °F -41.6 °F -22.0 °F 64% 30.22 in 2.0 mi NW 25.3 mph 31.1 mph N/A Snow Blowing Snow
2:14 PM - - - N/A% - 4.0 mi NW 23.0 mph 28.8 mph N/A   Unknown
3:00 PM -11.2 °F -38.2 °F -22.0 °F 59% 30.25 in 10.0 mi NW 23.0 mph 28.8 mph N/A Snow Low Drifting Snow
4:00 PM -11.2 °F -38.2 °F -20.2 °F 64% 30.26 in 10.0 mi NW 23.0 mph 28.8 mph N/A Snow Low Drifting Snow
5:00 PM -11.2 °F -37.0 °F -20.2 °F 64% 30.28 in 12.0 mi NW 20.7 mph 26.5 mph N/A Snow Low Drifting Snow
6:00 PM -11 °F - -20 °F 48% 30.30 in 15 mi NW 19.6 mph - - Snow Low Drifting Snow
6:00 PM -11.2 °F -37.0 °F -20.2 °F 64% 30.30 in 15.0 mi NW 20.7 mph 26.5 mph N/A Snow Low Drifting Snow
7:00 PM -11.2 °F -36.4 °F -20.2 °F 64% 30.31 in 15.0 mi WNW 19.6 mph - N/A Snow Low Drifting Snow
8:00 PM -11.2 °F -38.7 °F -20.2 °F 64% 30.31 in 15.0 mi NW 24.2 mph - N/A Snow Low Drifting Snow
9:00 PM -13.0 °F -33.4 °F -22.0 °F 64% 30.33 in 15.0 mi NW 11.5 mph - N/A   Partly Cloudy
10:00 PM -14.8 °F -37.5 °F -23.8 °F 64% 30.34 in 15.0 mi NW 13.8 mph - N/A   Partly Cloudy
11:00 PM -14.8 °F -40.5 °F -22.0 °F 70% 30.33 in 15.0 mi NW 18.4 mph - N/A Snow Low Drifting Snow